<?xml version='1.0' encoding='UTF-8'?>
<gpx xmlns="http://www.topografix.com/GPX/1/1" creator="www.balnam.be" version="1.1" xmlns:xsi="http://www.w3.org/2001/XMLSchema-instance" xsi:schemaLocation="http://www.topografix.com/GPX/1/1 http://www.topografix.com/GPX/1/1/gpx.xsd">
<trk>
<name>lrepo10</name>
<cmt>r</cmt>
<desc>Pousset Chemin n°10 </desc>
<link href="https://chemins.be/pousset/chemin/10"/><trkseg>
<trkpt lat="50.691602" lon="5.303542"><time>2026-05-02T17:08:26Z</time></trkpt>
<trkpt lat="50.692227" lon="5.304107"><time>2026-05-02T17:18:26Z</time></trkpt>
</trkseg></trk>
<trk>
<name>lrepo10</name>
<cmt>q</cmt>
<desc>Pousset Chemin n°10 </desc>
<link href="https://chemins.be/pousset/chemin/10"/><trkseg>
<trkpt lat="50.692227" lon="5.304107"><time>2026-05-02T17:18:26Z</time></trkpt>
<trkpt lat="50.692311" lon="5.304873"><time>2026-05-02T17:28:26Z</time></trkpt>
<trkpt lat="50.693176" lon="5.306843"><time>2026-05-02T17:38:26Z</time></trkpt>
<trkpt lat="50.693744" lon="5.307789"><time>2026-05-02T17:48:26Z</time></trkpt>
</trkseg>
</trk>
<trk>
<name>lrepo13</name>
<cmt>v</cmt>
<desc>Pousset Chemin n°13 </desc>
<link href="https://chemins.be/pousset/chemin/13"/><trkseg>
<trkpt lat="50.692542" lon="5.301568"><time>2026-05-02T17:08:26Z</time></trkpt>
<trkpt lat="50.692598" lon="5.299699"><time>2026-05-02T17:18:26Z</time></trkpt>
</trkseg></trk>
<trk>
<name>lrepo13</name>
<cmt>q</cmt>
<desc>Pousset Chemin n°13 </desc>
<link href="https://chemins.be/pousset/chemin/13"/><trkseg>
<trkpt lat="50.692598" lon="5.299699"><time>2026-05-02T17:18:26Z</time></trkpt>
<trkpt lat="50.692828" lon="5.299343"><time>2026-05-02T17:28:26Z</time></trkpt>
</trkseg>
</trk>
<trk>
<name>lrepo14</name>
<cmt>s</cmt>
<desc>Pousset Chemin n°14 </desc>
<link href="https://chemins.be/pousset/chemin/14"/><trkseg>
<trkpt lat="50.679406" lon="5.292113"><time>2026-05-02T17:08:26Z</time></trkpt>
<trkpt lat="50.679884" lon="5.291730"><time>2026-05-02T17:18:26Z</time></trkpt>
<trkpt lat="50.680974" lon="5.291312"><time>2026-05-02T17:28:26Z</time></trkpt>
</trkseg>
</trk>
<trk>
<name>lrepo15</name>
<cmt>q</cmt>
<desc>Pousset Sentier n°15 </desc>
<link href="https://chemins.be/pousset/sentier/15"/><trkseg>
<trkpt lat="50.691812" lon="5.294362"><time>2026-05-02T17:08:26Z</time></trkpt>
<trkpt lat="50.691078" lon="5.297009"><time>2026-05-02T17:18:26Z</time></trkpt>
<trkpt lat="50.690320" lon="5.302032"><time>2026-05-02T17:28:26Z</time></trkpt>
<trkpt lat="50.690392" lon="5.302125"><time>2026-05-02T17:38:26Z</time></trkpt>
<trkpt lat="50.690297" lon="5.303476"><time>2026-05-02T17:48:26Z</time></trkpt>
<trkpt lat="50.690157" lon="5.303863"><time>2026-05-02T17:58:26Z</time></trkpt>
<trkpt lat="50.689998" lon="5.305722"><time>2026-05-02T18:08:26Z</time></trkpt>
<trkpt lat="50.689305" lon="5.308333"><time>2026-05-02T18:18:26Z</time></trkpt>
<trkpt lat="50.689549" lon="5.310500"><time>2026-05-02T18:28:26Z</time></trkpt>
</trkseg>
</trk>
<trk>
<name>lrepo16</name>
<cmt>q</cmt>
<desc>Pousset Sentier n°16 </desc>
<link href="https://chemins.be/pousset/sentier/16"/><trkseg>
<trkpt lat="50.697806" lon="5.301910"><time>2026-05-02T17:08:26Z</time></trkpt>
<trkpt lat="50.696406" lon="5.300687"><time>2026-05-02T17:18:26Z</time></trkpt>
<trkpt lat="50.694769" lon="5.297695"><time>2026-05-02T17:28:26Z</time></trkpt>
<trkpt lat="50.692359" lon="5.296079"><time>2026-05-02T17:38:26Z</time></trkpt>
<trkpt lat="50.691697" lon="5.293976"><time>2026-05-02T17:48:26Z</time></trkpt>
<trkpt lat="50.690949" lon="5.293277"><time>2026-05-02T17:58:26Z</time></trkpt>
<trkpt lat="50.690437" lon="5.292440"><time>2026-05-02T18:08:26Z</time></trkpt>
</trkseg>
</trk>
<trk>
<name>lrepo17</name>
<cmt>q</cmt>
<desc>Pousset Sentier n°17 </desc>
<link href="https://chemins.be/pousset/sentier/17"/><trkseg>
<trkpt lat="50.695197" lon="5.302525"><time>2026-05-02T17:08:26Z</time></trkpt>
<trkpt lat="50.693756" lon="5.299106"><time>2026-05-02T17:18:26Z</time></trkpt>
<trkpt lat="50.693022" lon="5.297583"><time>2026-05-02T17:28:26Z</time></trkpt>
<trkpt lat="50.693339" lon="5.293735"><time>2026-05-02T17:38:26Z</time></trkpt>
<trkpt lat="50.693821" lon="5.291889"><time>2026-05-02T17:48:26Z</time></trkpt>
</trkseg>
</trk>
<trk>
<name>lrepo18</name>
<cmt>q</cmt>
<desc>Pousset Sentier n°18 </desc>
<link href="https://chemins.be/pousset/sentier/18"/><trkseg>
<trkpt lat="50.693239" lon="5.301173"><time>2026-05-02T17:08:26Z</time></trkpt>
<trkpt lat="50.693339" lon="5.298248"><time>2026-05-02T17:18:26Z</time></trkpt>
</trkseg>
</trk>
<trk>
<name>lrepo19</name>
<cmt>q</cmt>
<desc>Pousset Sentier n°19 </desc>
<link href="https://chemins.be/pousset/sentier/19"/><trkseg>
<trkpt lat="50.690480" lon="5.307165"><time>2026-05-02T17:08:26Z</time></trkpt>
<trkpt lat="50.690960" lon="5.307494"><time>2026-05-02T17:18:26Z</time></trkpt>
</trkseg>
</trk>
<trk>
<name>lrepo2</name>
<cmt>s</cmt>
<desc>Pousset Chemin n°2 </desc>
<link href="https://chemins.be/pousset/chemin/2"/><trkseg>
<trkpt lat="50.690232" lon="5.301840"><time>2026-05-02T17:08:26Z</time></trkpt>
<trkpt lat="50.683573" lon="5.295686"><time>2026-05-02T17:18:26Z</time></trkpt>
<trkpt lat="50.680498" lon="5.293429"><time>2026-05-02T17:28:26Z</time></trkpt>
<trkpt lat="50.679408" lon="5.292147"><time>2026-05-02T17:38:26Z</time></trkpt>
<trkpt lat="50.677799" lon="5.289143"><time>2026-05-02T17:48:26Z</time></trkpt>
<trkpt lat="50.677151" lon="5.288528"><time>2026-05-02T17:58:26Z</time></trkpt>
</trkseg>
</trk>
<trk>
<name>lrepo22</name>
<cmt>q</cmt>
<desc>Pousset Sentier n°22 </desc>
<link href="https://chemins.be/pousset/sentier/22"/><trkseg>
<trkpt lat="50.679400" lon="5.292113"><time>2026-05-02T17:08:26Z</time></trkpt>
<trkpt lat="50.678748" lon="5.293307"><time>2026-05-02T17:18:26Z</time></trkpt>
<trkpt lat="50.677414" lon="5.297670"><time>2026-05-02T17:28:26Z</time></trkpt>
<trkpt lat="50.676064" lon="5.302033"><time>2026-05-02T17:38:26Z</time></trkpt>
<trkpt lat="50.675865" lon="5.302598"><time>2026-05-02T17:48:26Z</time></trkpt>
</trkseg>
</trk>
<trk>
<name>lrepo23</name>
<cmt>q</cmt>
<desc>Pousset Sentier n°23 </desc>
<link href="https://chemins.be/pousset/sentier/23"/><trkseg>
<trkpt lat="50.692981" lon="5.301660"><time>2026-05-02T17:08:26Z</time></trkpt>
<trkpt lat="50.693334" lon="5.301202"><time>2026-05-02T17:18:26Z</time></trkpt>
<trkpt lat="50.696397" lon="5.300701"><time>2026-05-02T17:28:26Z</time></trkpt>
</trkseg>
</trk>
<trk>
<name>lrepo24</name>
<cmt>q</cmt>
<desc>Pousset Sentier n°24 </desc>
<link href="https://chemins.be/pousset/sentier/24"/><trkseg>
<trkpt lat="50.692338" lon="5.296131"><time>2026-05-02T17:08:26Z</time></trkpt>
<trkpt lat="50.693026" lon="5.297554"><time>2026-05-02T17:18:26Z</time></trkpt>
</trkseg>
</trk>
<trk>
<name>lrepo3</name>
<cmt>r</cmt>
<desc>Pousset Chemin n°3 </desc>
<link href="https://chemins.be/pousset/chemin/3"/><trkseg>
<trkpt lat="50.682247" lon="5.301990"><time>2026-05-02T17:08:26Z</time></trkpt>
<trkpt lat="50.680942" lon="5.301704"><time>2026-05-02T17:18:26Z</time></trkpt>
</trkseg></trk>
<trk>
<name>lrepo3</name>
<cmt>s</cmt>
<desc>Pousset Chemin n°3 </desc>
<link href="https://chemins.be/pousset/chemin/3"/><trkseg>
<trkpt lat="50.680942" lon="5.301704"><time>2026-05-02T17:18:26Z</time></trkpt>
<trkpt lat="50.675812" lon="5.302706"><time>2026-05-02T17:28:26Z</time></trkpt>
</trkseg>
</trk>
<trk>
<name>lrepo6</name>
<cmt>s</cmt>
<desc>Pousset Chemin n°6 </desc>
<link href="https://chemins.be/pousset/chemin/6"/><trkseg>
<trkpt lat="50.696373" lon="5.311305"><time>2026-05-02T17:08:26Z</time></trkpt>
<trkpt lat="50.694490" lon="5.315586"><time>2026-05-02T17:18:26Z</time></trkpt>
<trkpt lat="50.693805" lon="5.318142"><time>2026-05-02T17:28:26Z</time></trkpt>
</trkseg>
</trk>
<trk>
<name>lrepo7</name>
<cmt>s</cmt>
<desc>Pousset Chemin n°7 </desc>
<link href="https://chemins.be/pousset/chemin/7"/><trkseg>
<trkpt lat="50.694444" lon="5.308456"><time>2026-05-02T17:08:26Z</time></trkpt>
<trkpt lat="50.694457" lon="5.309411"><time>2026-05-02T17:18:26Z</time></trkpt>
<trkpt lat="50.695083" lon="5.311482"><time>2026-05-02T17:28:26Z</time></trkpt>
<trkpt lat="50.695327" lon="5.313317"><time>2026-05-02T17:38:26Z</time></trkpt>
<trkpt lat="50.695212" lon="5.314068"><time>2026-05-02T17:48:26Z</time></trkpt>
<trkpt lat="50.694858" lon="5.314690"><time>2026-05-02T17:58:26Z</time></trkpt>
<trkpt lat="50.694930" lon="5.316071"><time>2026-05-02T18:08:26Z</time></trkpt>
<trkpt lat="50.695358" lon="5.318212"><time>2026-05-02T18:18:26Z</time></trkpt>
</trkseg>
</trk>
<trk>
<name>lrepo9</name>
<cmt>q</cmt>
<desc>Pousset Chemin n°9 </desc>
<link href="https://chemins.be/pousset/chemin/9"/><trkseg>
<trkpt lat="50.695238" lon="5.303163"><time>2026-05-02T17:08:26Z</time></trkpt>
<trkpt lat="50.695152" lon="5.302691"><time>2026-05-02T17:18:26Z</time></trkpt>
<trkpt lat="50.695182" lon="5.302514"><time>2026-05-02T17:28:26Z</time></trkpt>
</trkseg>
</trk>
<trk>
<name>lrepoi1</name>
<cmt>r</cmt>
<desc>Pousset Chemin n°i1 </desc>
<link href="https://chemins.be/pousset/chemin/i1"/><trkseg>
<trkpt lat="50.679718" lon="5.298457"><time>2026-05-02T17:08:26Z</time></trkpt>
<trkpt lat="50.675458" lon="5.296898"><time>2026-05-02T17:18:26Z</time></trkpt>
</trkseg>
</trk>
<trk>
<name>lrepoi2</name>
<cmt>v</cmt>
<desc>Pousset Chemin n°i2 </desc>
<link href="https://chemins.be/pousset/chemin/i2"/><trkseg>
<trkpt lat="50.682684" lon="5.312607"><time>2026-05-02T17:08:26Z</time></trkpt>
<trkpt lat="50.685222" lon="5.302832"><time>2026-05-02T17:18:26Z</time></trkpt>
<trkpt lat="50.687528" lon="5.294062"><time>2026-05-02T17:28:26Z</time></trkpt>
</trkseg>
</trk>
</gpx>